Miscellaneous Local Product
Issued by NWS North Platte, NE

Home | Current Version | Previous Version | Text Only | Print | Product List | Glossary On
Versions: 1 2 3 4 5 6 7 8 9 10 11 12 13 14 15 16 17 18 19 20 21 22 23 24 25 26 27 28 29 30 31 32 33 34 35 36 37 38 39 40 41 42 43 44 45 46 47 48 49 50
000
AXUS43 KLBF 190510
MISLBF


WESTERN AND NORTH CENTRAL NEBRASKA HOURLY WEATHER ROUNDUP
NATIONAL WEATHER SERVICE NORTH PLATTE NE
1200 AM CDT SUN APR 19 2015

***STATIONS NOT REPORTING VARIABLES SUCH AS SKY/WEATHER OR
PRESSURE ARE PROVIDED BY THE NEBRASKA DEPARTMENT OF
ROADS...RAWS...AND APRS NETWORKS...AND ARE NOT UNDER
NATIONAL WEATHER SERVICE QUALITY CONTROL***

...OBSERVATIONS IN AND NEAR THE EASTERN PANHANDLE OF NEBRASKA...

CITY           SKY/WX    TMP DP  RH WIND       PRES   REMARKS
PINE RIDGE     LGT RAIN  46  42  86 NW10      29.95R FOG
CHADRON        LGT RAIN  46  42  86 N12       29.97R
ALLIANCE       MOCLDY    45  42  89 NW7       29.92F
SIDNEY         LGT RAIN  45  42  89 N21       29.92R
WHITECLAY        N/A     43  41  93 NW16        N/A
CRESCENT LAKE    N/A     46  43  90 N7G16       N/A
BIG SPRINGS      N/A     49  45  86 N5          N/A
$$

...OBSERVATIONS IN NORTH CENTRAL NEBRASKA...

CITY           SKY/WX    TMP DP  RH WIND       PRES   REMARKS
VALENTINE      CLOUDY    50  45  83 NW5       29.88R
THEDFORD       CLOUDY    52  49  90 NW21      29.87R
AINSWORTH      CLOUDY    53  51  94 N10       29.85F
O`NEILL        CLOUDY    55  55  99 N7        29.80F THUNDER FOG
ORD            CLOUDY    54  46  74 W18G26    29.77F
BROKEN BOW     CLOUDY    52  47  83 W16       29.79F
BROWNLEE         N/A     55  51  86 N14         N/A
SPRINGVIEW       N/A     53  50  90 W5          N/A
BREWSTER         N/A     51  49  95 SW10        N/A
ROSE             N/A     54  54  99 N7          N/A
NEWPORT          N/A     53  53  99 NW8         N/A
SARGENT          N/A     51  47  88 W9          N/A
COMSTOCK         N/A     54  49  82 W14         N/A
EWING            N/A     56  54  94 CALM        N/A
$$

...OBSERVATIONS IN SOUTHWEST NEBRASKA AND FAR NORTHEAST COLORADO...

CITY           SKY/WX    TMP DP  RH WIND       PRES   REMARKS
WRAY           CLOUDY    49  42  78 N14G20    29.85R
HOLYOKE        MOCLDY    48  43  81 N14       29.87R
IMPERIAL       CLOUDY    49  44  83 N12       29.86R
OGALLALA       CLOUDY    49  45  85 N17G29    29.86S
NORTH PLATTE   RAIN      49  46  90 N10       29.86S
MCCOOK         CLOUDY    54  47  77 E12       29.83R
LEXINGTON      CLOUDY    52  49  87 W8        29.81F
PAXTON           N/A     51  46  84 NW3         N/A
SUTHERLAND       N/A     45  42  90 N18         N/A
BRADY            N/A     48  45  88 CALM        N/A
GOTHENBURG       N/A     51  44  77 N5          N/A
CALLAWAY         N/A     49  47  93 W12         N/A
$$

...NORTH PLATTE AREA...

CITY           SKY/WX    TMP DP  RH WIND       PRES   REMARKS
AIRPORT        RAIN      49  46  90 N10       29.86S
DOWNTOWN         N/A     49  46  91 N6G14       N/A
$$

...SOME WEATHER OBSERVATIONS FROM AROUND THE REGION...

CITY           SKY/WX    TMP DP  RH WIND       PRES   REMARKS
DENVER         CLOUDY    41  34  76 N18       29.96R
LARAMIE        LGT SNOW  32  31  96 N16       30.03R FOG     WCI  21
CHEYENNE       CLOUDY    38  33  82 N23G33    29.98S WCI  27
SCOTTSBLUFF    CLOUDY    44  32  62 NW10      29.97R
RAPID CITY     LGT RAIN  45  42  89 N28G38    29.97R
PIERRE         LGT RAIN  46  45  96 NW18      29.84S FOG
WINNER         MOCLDY    50  46  86 W9        29.85S
SIOUX FALLS    CLOUDY    57  55  93 S8        29.78F
OMAHA          MOCLDY    56  55  97 CALM      29.81F
GRAND ISLAND   CLOUDY    54  47  77 S9        29.79F
KANSAS CITY    CLOUDY    57  57 100 SE6       29.81F
WICHITA        TSTM      55  53  93 SW6       29.86R FOG
HAYS           CLOUDY    52  43  71 E7        29.77F
LIBERAL        CLEAR     45  34  65 N9        29.82S
GOODLAND       CLOUDY    47  44  90 N10       29.79F
$$



USA.gov is the U.S. government's official web portal to all federal, state and local government web resources and services.